THOR ABLESTAR DEB, 416

Orbit data source: Space-Track

THOR ABLESTAR DEB, 416 is space debris in LEO originally from a launch on Thu, 29 Jun 1961 UTC launched from the Air Force Eastern Test Range (AFETR). Debris objects in space refer to the collection of defunct objects orbiting the Earth. Examples of debris include non-operational satellites, rocket bodies, and fragments generated from explosions, collisions, or faulty payload assembly.

Loading next visibility...
Identifier
416, 1961-015ER
Orbit
LEO
Country
Flag of USUS
Related business
Manufacturer
Unknown
Mission
Spacecraft
Bus & Motor
Unknown
Mass
Unknown
Launch date (UTC)
1961-06-29 (65 years ago)
Launch vehicle
Unknown
Launch site
Air Force Eastern Test Range (AFETR)
Object type
Payload
Rocket body
Debris
Shape & HBR
Unknown shape, 0.1 m
Radar Cross Section
Medium (>0.1 m² and <1 m²)

Expand to show TLE details & history
Last TLE update: 14 hours ago

TLE from 14 hours ago
0 THOR ABLESTAR DEB
1   416U 61015ER  26192.03387359  .00000308  00000-0  19794-3 0  9996
2   416  66.4919 214.6258 0074654 160.4830 199.9145 14.14751378335228
Epoch: 2026-07-11T00:48Z
TLE epoch observation values (Epoch: 2026-07-11T00:48:46.678Z)
Latitude
0.00005°
Longitude
-86.52156°
Altitude
895.972 km
Speed
7.379 km/s
True Right ascension
14h 18m 30s
True Declination
0° 00' 00"
Sunlit
Object was in daylight at epoch
Visualization orbit readout
Latitude
Unknown
Longitude
Unknown
Altitude
Unknown
Speed
Unknown
Apparent Right ascension
Unknown
Apparent Declination
Unknown
Sunlit
N/A
Visualization observer readout
Local Sidereal Time
03:10:29
Azimuth
Unknown
Elevation
Unknown
Doppler factor
Unknown
Orbital elements
Apogee altitude
895.467 km
Perigee altitude
787.671 km
Semi-major axis
7,219.706 km
Eccentricity
0.00747
Inclination
66.4919°
RAAN
214.6258°
Arg. of periapsis
160.483°
True anomaly
199.62565°
Mean anomaly
199.9145°
Eccentric anomaly
199.76982°
Mean motion
3.53805 °/min
Orbital period
101.75 mins
BSTAR
0.00019794

Documentation

Showing up to 5 results
|